Location: B?dargowo
(53.3916°N, 14.4413°E)
Time: 09:13:53
(UTC+00:00)

Meteor 1-21 Rocket - Pass Details

Date: 05 February 2023
Orbit: 833 x 907 km, 81.2° (Epoch: 19 March)

Event Time Altitude Azimuth Distance (km) Brightness Sun altitude
Rises 16:25:58 0° 182° (S) 3,424 7.7 -5.4°
Reaches altitude 10° 16:28:25 10° 180° (S) 2,481 6.9 -5.8°
Maximum altitude 16:33:59 68° 99° (E) 909 4.2 -6.6°
Drops below altitude 10° 16:39:31 10° 17° (NNE) 2,464 6.3 -7.3°
Sets 16:41:56 0° 16° (NNE) 3,398 7.0 -7.7°
